Tracking 18945 objects as of 19-Jan-2018
HD Live streaming from Space Station
objects crossing your sky now

FENGYUN 1C DEB

Track FENGYUN 1C DEB now!
10-day predictions


NORAD ID: 30280
Int'l Code: 1999-025YR
Perigee: 854.6 km
Apogee: 971.9 km
Inclination: 99.0 °
Period: 103.1 minutes
Semi major axis: 7284 km
RCS: 0.043 m2 (small)
Launch date: May 10, 1999
Source: People's Republic of China (PRC)
Launch site: Taiyaun Space Center, China (TSC)

Note: This is SATELLITE DEBRIS
aabbcc
Your satellite tracking list
Your tracking list is empty




NASA's NSSDC Master Catalog

Two Line Element Set (TLE):
1 30280U 99025YR  18019.14699064 -.00000069  00000-0 -18342-4 0  9995
2 30280  99.0105  81.0858 0080532  17.1230   9.3813 13.96450162561431
Source of the keplerian elements: AFSPC